"Sample Date","Sample Time","Sensor Name","Sample Value","Units","Flow Rate","Sample Interval","Sample Volume","Laser Status","Number Channels","Micron Size 0","Counts/Channel 0","Micron Size 1","Counts/Channel 1","Micron Size 2","Counts/Channel 2","Micron Size 3","Counts/Channel 3","Micron Size 4","Counts/Channel 4","Micron Size 5","Counts/Channel 5","Micron Size 6","Counts/Channel 6","Micron Size 7","Counts/Channel 7","Micron Size 8","Counts/Channel 8","Micron Size 9","Counts/Channel 9","Micron Size 10","Counts/Channel 10","Micron Size 11","Counts/Channel 11","Micron Size 12","Counts/Channel 12","Micron Size 13","Counts/Channel 13","Micron Size 14","Counts/Channel 14","Micron Size 15","Counts/Channel 15","Micron Size 16","Counts/Channel 16","Micron Size 17","Counts/Channel 17","Micron Size 18","Counts/Channel 18","Micron Size 19","Counts/Channel 19","Micron Size 20","Counts/Channel 20","Micron Size 21","Counts/Channel 21","Micron Size 22","Counts/Channel 22","Micron Size 23","Counts/Channel 23","Micron Size 24","Counts/Channel 24","Micron Size 25","Counts/Channel 25","Micron Size 26","Counts/Channel 26","Micron Size 27","Counts/Channel 27","Micron Size 28","Counts/Channel 28","Micron Size 29","Counts/Channel 29","Micron Size 30","Counts/Channel 30","Micron Size 31","Counts/Channel 31"
"07/04/06","20:00:02","AMMA06",39543.000,"cc",28334.518,6.00,2833.452,1,6,0.100,19715.000,0.200,17162.000,0.300,1912.000,0.500,457.000,1.000,297.000,5.000,0
"07/04/06","20:00:08","AMMA06",40130.000,"cc",28341.002,6.00,2834.100,1,6,0.100,19964.000,0.200,17604.000,0.300,1862.000,0.500,423.000,1.000,277.000,5.000,0
"07/04/06","20:00:14","AMMA06",39609.000,"cc",28321.732,6.00,2832.173,1,6,0.100,19694.000,0.200,17262.000,0.300,1893.000,0.500,460.000,1.000,300.000,5.000,0
"07/04/06","20:00:20","AMMA06",39709.000,"cc",28310.381,6.00,2831.038,1,6,0.100,19894.000,0.200,17261.000,0.300,1807.000,0.500,446.000,1.000,301.000,5.000,0
"07/04/06","20:00:26","AMMA06",39607.000,"cc",28387.994,6.00,2838.800,1,6,0.100,19662.000,0.200,17260.000,0.300,1900.000,0.500,457.000,1.000,328.000,5.000,0
"07/04/06","20:00:32","AMMA06",39500.000,"cc",28274.772,6.00,2827.477,1,6,0.100,19679.000,0.200,17195.000,0.300,1831.000,0.500,472.000,1.000,322.000,5.000,1.000
"07/04/06","20:00:38","AMMA06",39192.000,"cc",28334.570,6.00,2833.457,1,6,0.100,19499.000,0.200,17065.000,0.300,1877.000,0.500,435.000,1.000,316.000,5.000,0
"07/04/06","20:00:44","AMMA06",38963.000,"cc",28331.600,6.00,2833.160,1,6,0.100,19605.000,0.200,16840.000,0.300,1805.000,0.500,415.000,1.000,298.000,5.000,0
"07/04/06","20:00:50","AMMA06",39190.000,"cc",28342.908,6.00,2834.291,1,6,0.100,19650.000,0.200,16966.000,0.300,1851.000,0.500,442.000,1.000,281.000,5.000,0
"07/04/06","20:00:56","AMMA06",39372.000,"cc",28283.467,6.00,2828.347,1,6,0.100,19815.000,0.200,16913.000,0.300,1847.000,0.500,477.000,1.000,320.000,5.000,0
"07/04/06","20:01:02","AMMA06",38647.000,"cc",28286.098,6.00,2828.610,1,6,0.100,19297.000,0.200,16825.000,0.300,1816.000,0.500,414.000,1.000,295.000,5.000,0
"07/04/06","20:01:08","AMMA06",39108.000,"cc",28330.908,6.00,2833.091,1,6,0.100,19498.000,0.200,16878.000,0.300,1934.000,0.500,479.000,1.000,319.000,5.000,0
"07/04/06","20:01:14","AMMA06",38765.000,"cc",28307.006,6.00,2830.701,1,6,0.100,19310.000,0.200,16880.000,0.300,1783.000,0.500,462.000,1.000,330.000,5.000,0
"07/04/06","20:01:20","AMMA06",38601.000,"cc",28271.764,6.00,2827.177,1,6,0.100,19190.000,0.200,16825.000,0.300,1816.000,0.500,473.000,1.000,297.000,5.000,0
"07/04/06","20:01:26","AMMA06",38928.000,"cc",28366.551,6.00,2836.655,1,6,0.100,19223.000,0.200,17055.000,0.300,1913.000,0.500,454.000,1.000,283.000,5.000,0
"07/04/06","20:01:32","AMMA06",38801.000,"cc",28297.088,6.00,2829.709,1,6,0.100,19384.000,0.200,16908.000,0.300,1774.000,0.500,419.000,1.000,316.000,5.000,0
"07/04/06","20:01:38","AMMA06",38525.000,"cc",28327.781,6.00,2832.778,1,6,0.100,19328.000,0.200,16612.000,0.300,1798.000,0.500,489.000,1.000,298.000,5.000,0
"07/04/06","20:01:44","AMMA06",38737.000,"cc",28297.059,6.00,2829.706,1,6,0.100,19177.000,0.200,16980.000,0.300,1834.000,0.500,426.000,1.000,320.000,5.000,0
"07/04/06","20:01:50","AMMA06",38789.000,"cc",28300.232,6.00,2830.023,1,6,0.100,19279.000,0.200,16921.000,0.300,1810.000,0.500,464.000,1.000,315.000,5.000,0
"07/04/06","20:01:56","AMMA06",39058.000,"cc",28349.262,6.00,2834.926,1,6,0.100,19333.000,0.200,17053.000,0.300,1877.000,0.500,472.000,1.000,323.000,5.000,0
"07/04/06","20:02:02","AMMA06",38681.000,"cc",28303.287,6.00,2830.329,1,6,0.100,19146.000,0.200,17038.000,0.300,1777.000,0.500,442.000,1.000,278.000,5.000,0
"07/04/06","20:02:08","AMMA06",38867.000,"cc",28263.613,6.00,2826.362,1,6,0.100,19323.000,0.200,16947.000,0.300,1839.000,0.500,429.000,1.000,329.000,5.000,0
"07/04/06","20:02:14","AMMA06",38740.000,"cc",28303.545,6.00,2830.355,1,6,0.100,19222.000,0.200,16922.000,0.300,1842.000,0.500,455.000,1.000,298.000,5.000,1.000
"07/04/06","20:02:20","AMMA06",39127.000,"cc",28280.313,6.00,2828.032,1,6,0.100,19205.000,0.200,17270.000,0.300,1848.000,0.500,492.000,1.000,310.000,5.000,2.000
"07/04/06","20:02:26","AMMA06",38943.000,"cc",28348.846,6.00,2834.885,1,6,0.100,19203.000,0.200,17176.000,0.300,1811.000,0.500,418.000,1.000,335.000,5.000,0
"07/04/06","20:02:32","AMMA06",39282.000,"cc",28339.283,6.00,2833.929,1,6,0.100,19464.000,0.200,17235.000,0.300,1847.000,0.500,432.000,1.000,304.000,5.000,0
"07/04/06","20:02:38","AMMA06",38676.000,"cc",28348.758,6.00,2834.876,1,6,0.100,19143.000,0.200,17024.000,0.300,1752.000,0.500,445.000,1.000,312.000,5.000,0
"07/04/06","20:02:44","AMMA06",39023.000,"cc",28309.293,6.00,2830.929,1,6,0.100,19258.000,0.200,17079.000,0.300,1897.000,0.500,480.000,1.000,309.000,5.000,0
"07/04/06","20:02:50","AMMA06",38958.000,"cc",28365.805,6.00,2836.581,1,6,0.100,18992.000,0.200,17378.000,0.300,1862.000,0.500,431.000,1.000,295.000,5.000,0
"07/04/06","20:02:56","AMMA06",38752.000,"cc",28351.326,6.00,2835.133,1,6,0.100,19016.000,0.200,17099.000,0.300,1850.000,0.500,455.000,1.000,332.000,5.000,0
"07/04/06","20:03:02","AMMA06",38918.000,"cc",28269.617,6.00,2826.962,1,6,0.100,18915.000,0.200,17369.000,0.300,1905.000,0.500,453.000,1.000,276.000,5.000,0
"07/04/06","20:03:08","AMMA06",39019.000,"cc",28316.170,6.00,2831.617,1,6,0.100,19055.000,0.200,17239.000,0.300,1922.000,0.500,482.000,1.000,321.000,5.000,0
"07/04/06","20:03:14","AMMA06",39485.000,"cc",28276.561,6.00,2827.656,1,6,0.100,19236.000,0.200,17569.000,0.300,1888.000,0.500,481.000,1.000,311.000,5.000,0
"07/04/06","20:03:20","AMMA06",39346.000,"cc",28294.190,6.00,2829.419,1,6,0.100,19205.000,0.200,17511.000,0.300,1839.000,0.500,451.000,1.000,340.000,5.000,0
"07/04/06","20:03:26","AMMA06",38875.000,"cc",28353.084,6.00,2835.309,1,6,0.100,19125.000,0.200,17146.000,0.300,1841.000,0.500,439.000,1.000,324.000,5.000,0
"07/04/06","20:03:32","AMMA06",39251.000,"cc",28321.688,6.00,2832.169,1,6,0.100,19238.000,0.200,17404.000,0.300,1877.000,0.500,438.000,1.000,294.000,5.000,0
"07/04/06","20:03:38","AMMA06",39262.000,"cc",28332.781,6.00,2833.278,1,6,0.100,19288.000,0.200,17328.000,0.300,1903.000,0.500,469.000,1.000,274.000,5.000,0
"07/04/06","20:03:44","AMMA06",39341.000,"cc",28288.106,6.00,2828.811,1,6,0.100,19443.000,0.200,17373.000,0.300,1812.000,0.500,421.000,1.000,292.000,5.000,0
"07/04/06","20:03:50","AMMA06",39531.000,"cc",28306.881,6.00,2830.688,1,6,0.100,19557.000,0.200,17397.000,0.300,1869.000,0.500,438.000,1.000,270.000,5.000,0
"07/04/06","20:03:56","AMMA06",39304.000,"cc",28332.760,6.00,2833.276,1,6,0.100,19464.000,0.200,17253.000,0.300,1837.000,0.500,438.000,1.000,312.000,5.000,0
"07/04/06","20:04:02","AMMA06",39178.000,"cc",28272.928,6.00,2827.293,1,6,0.100,19340.000,0.200,17215.000,0.300,1878.000,0.500,444.000,1.000,301.000,5.000,0
"07/04/06","20:04:08","AMMA06",39271.000,"cc",28332.744,6.00,2833.275,1,6,0.100,19609.000,0.200,17084.000,0.300,1807.000,0.500,450.000,1.000,321.000,5.000,0
"07/04/06","20:04:14","AMMA06",39105.000,"cc",28308.617,6.00,2830.862,1,6,0.100,19479.000,0.200,17078.000,0.300,1772.000,0.500,476.000,1.000,300.000,5.000,0
"07/04/06","20:04:20","AMMA06",39163.000,"cc",28304.467,6.00,2830.447,1,6,0.100,19637.000,0.200,16926.000,0.300,1819.000,0.500,478.000,1.000,303.000,5.000,0
"07/04/06","20:04:26","AMMA06",39251.000,"cc",28314.350,6.00,2831.435,1,6,0.100,19458.000,0.200,17154.000,0.300,1904.000,0.500,433.000,1.000,302.000,5.000,0
"07/04/06","20:04:32","AMMA06",39352.000,"cc",28300.443,6.00,2830.044,1,6,0.100,19585.000,0.200,17158.000,0.300,1824.000,0.500,462.000,1.000,323.000,5.000,0
"07/04/06","20:04:38","AMMA06",39595.000,"cc",28314.154,6.00,2831.416,1,6,0.100,19874.000,0.200,17179.000,0.300,1790.000,0.500,439.000,1.000,312.000,5.000,1.000
"07/04/06","20:04:44","AMMA06",39547.000,"cc",28294.898,6.00,2829.490,1,6,0.100,19753.000,0.200,17187.000,0.300,1846.000,0.500,458.000,1.000,302.000,5.000,1.000
"07/04/06","20:04:50","AMMA06",39279.000,"cc",28342.025,6.00,2834.203,1,6,0.100,19921.000,0.200,16845.000,0.300,1725.000,0.500,450.000,1.000,337.000,5.000,1.000
"07/04/06","20:04:56","AMMA06",39636.000,"cc",28337.762,6.00,2833.776,1,6,0.100,19915.000,0.200,17213.000,0.300,1774.000,0.500,425.000,1.000,309.000,5.000,0
"07/04/06","20:05:02","AMMA06",39540.000,"cc",28337.275,6.00,2833.728,1,6,0.100,19878.000,0.200,17064.000,0.300,1833.000,0.500,449.000,1.000,316.000,5.000,0
"07/04/06","20:05:08","AMMA06",39160.000,"cc",28299.981,6.00,2829.998,1,6,0.100,19724.000,0.200,16910.000,0.300,1755.000,0.500,496.000,1.000,275.000,5.000,0
"07/04/06","20:05:14","AMMA06",39460.000,"cc",28315.414,6.00,2831.542,1,6,0.100,20154.000,0.200,16853.000,0.300,1721.000,0.500,451.000,1.000,281.000,5.000,0
"07/04/06","20:05:20","AMMA06",39569.000,"cc",28296.861,6.00,2829.686,1,6,0.100,19859.000,0.200,17116.000,0.300,1809.000,0.500,471.000,1.000,313.000,5.000,1.000
"07/04/06","20:05:26","AMMA06",39298.000,"cc",28338.541,6.00,2833.854,1,6,0.100,20014.000,0.200,16813.000,0.300,1782.000,0.500,417.000,1.000,272.000,5.000,0
"07/04/06","20:05:32","AMMA06",39221.000,"cc",28282.762,6.00,2828.276,1,6,0.100,20040.000,0.200,16693.000,0.300,1730.000,0.500,447.000,1.000,311.000,5.000,0
"07/04/06","20:05:38","AMMA06",39289.000,"cc",28348.607,6.00,2834.861,1,6,0.100,20079.000,0.200,16677.000,0.300,1792.000,0.500,446.000,1.000,295.000,5.000,0
"07/04/06","20:05:44","AMMA06",39641.000,"cc",28352.246,6.00,2835.225,1,6,0.100,20084.000,0.200,17017.000,0.300,1731.000,0.500,499.000,1.000,309.000,5.000,1.000
"07/04/06","20:05:50","AMMA06",39341.000,"cc",28303.385,6.00,2830.339,1,6,0.100,20106.000,0.200,16851.000,0.300,1699.000,0.500,403.000,1.000,282.000,5.000,0
"07/04/06","20:05:56","AMMA06",39360.000,"cc",28295.209,6.00,2829.521,1,6,0.100,20254.000,0.200,16538.000,0.300,1782.000,0.500,489.000,1.000,297.000,5.000,0
"07/04/06","20:06:02","AMMA06",39488.000,"cc",28329.789,6.00,2832.979,1,6,0.100,20296.000,0.200,16751.000,0.300,1708.000,0.500,429.000,1.000,304.000,5.000,0
"07/04/06","20:06:08","AMMA06",39383.000,"cc",28300.668,6.00,2830.067,1,6,0.100,20147.000,0.200,16694.000,0.300,1760.000,0.500,485.000,1.000,297.000,5.000,0
"07/04/06","20:06:14","AMMA06",39389.000,"cc",28348.779,6.00,2834.878,1,6,0.100,20350.000,0.200,16609.000,0.300,1680.000,0.500,471.000,1.000,279.000,5.000,0
"07/04/06","20:06:20","AMMA06",39521.000,"cc",28308.272,6.00,2830.827,1,6,0.100,20312.000,0.200,16682.000,0.300,1747.000,0.500,470.000,1.000,310.000,5.000,0
"07/04/06","20:06:26","AMMA06",39426.000,"cc",28374.164,6.00,2837.417,1,6,0.100,20120.000,0.200,16787.000,0.300,1771.000,0.500,459.000,1.000,289.000,5.000,0
"07/04/06","20:06:32","AMMA06",39466.000,"cc",28313.922,6.00,2831.392,1,6,0.100,20474.000,0.200,16531.000,0.300,1688.000,0.500,439.000,1.000,334.000,5.000,0
"07/04/06","20:06:38","AMMA06",39831.000,"cc",28284.736,6.00,2828.474,1,6,0.100,20647.000,0.200,16606.000,0.300,1764.000,0.500,466.000,1.000,348.000,5.000,0
"07/04/06","20:06:44","AMMA06",39544.000,"cc",28296.725,6.00,2829.673,1,6,0.100,20410.000,0.200,16584.000,0.300,1756.000,0.500,473.000,1.000,320.000,5.000,1.000
"07/04/06","20:06:50","AMMA06",39391.000,"cc",28358.047,6.00,2835.805,1,6,0.100,20487.000,0.200,16428.000,0.300,1751.000,0.500,455.000,1.000,270.000,5.000,0
"07/04/06","20:06:56","AMMA06",39165.000,"cc",28282.006,6.00,2828.201,1,6,0.100,20348.000,0.200,16442.000,0.300,1614.000,0.500,457.000,1.000,304.000,5.000,0
"07/04/06","20:07:02","AMMA06",39041.000,"cc",28339.350,6.00,2833.935,1,6,0.100,20377.000,0.200,16295.000,0.300,1628.000,0.500,439.000,1.000,301.000,5.000,1.000
"07/04/06","20:07:08","AMMA06",39470.000,"cc",28325.127,6.00,2832.513,1,6,0.100,20548.000,0.200,16458.000,0.300,1748.000,0.500,422.000,1.000,292.000,5.000,2.000
"07/04/06","20:07:14","AMMA06",39587.000,"cc",28262.193,6.00,2826.220,1,6,0.100,20744.000,0.200,16419.000,0.300,1672.000,0.500,450.000,1.000,302.000,5.000,0
"07/04/06","20:07:20","AMMA06",39335.000,"cc",28355.674,6.00,2835.568,1,6,0.100,20560.000,0.200,16456.000,0.300,1608.000,0.500,405.000,1.000,306.000,5.000,0
"07/04/06","20:07:26","AMMA06",38971.000,"cc",28305.201,6.00,2830.520,1,6,0.100,20403.000,0.200,16181.000,0.300,1631.000,0.500,456.000,1.000,300.000,5.000,0
"07/04/06","20:07:32","AMMA06",39366.000,"cc",28300.633,6.00,2830.064,1,6,0.100,20590.000,0.200,16357.000,0.300,1704.000,0.500,449.000,1.000,266.000,5.000,0
"07/04/06","20:07:38","AMMA06",39466.000,"cc",28266.988,6.00,2826.699,1,6,0.100,20444.000,0.200,16635.000,0.300,1647.000,0.500,449.000,1.000,291.000,5.000,0
"07/04/06","20:07:44","AMMA06",39264.000,"cc",28330.014,6.00,2833.002,1,6,0.100,20545.000,0.200,16266.000,0.300,1677.000,0.500,474.000,1.000,302.000,5.000,0
"07/04/06","20:07:50","AMMA06",39369.000,"cc",28403.803,6.00,2840.380,1,6,0.100,20512.000,0.200,16436.000,0.300,1680.000,0.500,440.000,1.000,301.000,5.000,0
"07/04/06","20:07:56","AMMA06",39612.000,"cc",28298.629,6.00,2829.863,1,6,0.100,20580.000,0.200,16520.000,0.300,1739.000,0.500,461.000,1.000,311.000,5.000,1.000
"07/04/06","20:08:02","AMMA06",39460.000,"cc",28280.086,6.00,2828.009,1,6,0.100,20446.000,0.200,16536.000,0.300,1713.000,0.500,461.000,1.000,304.000,5.000,0
"07/04/06","20:08:08","AMMA06",39325.000,"cc",28294.135,6.00,2829.414,1,6,0.100,20392.000,0.200,16481.000,0.300,1694.000,0.500,485.000,1.000,273.000,5.000,0
"07/04/06","20:08:14","AMMA06",39230.000,"cc",28366.225,6.00,2836.623,1,6,0.100,20162.000,0.200,16612.000,0.300,1756.000,0.500,402.000,1.000,298.000,5.000,0
"07/04/06","20:08:20","AMMA06",39379.000,"cc",28341.816,6.00,2834.182,1,6,0.100,20228.000,0.200,16617.000,0.300,1775.000,0.500,465.000,1.000,294.000,5.000,0
"07/04/06","20:08:26","AMMA06",39386.000,"cc",28350.449,6.00,2835.045,1,6,0.100,20245.000,0.200,16735.000,0.300,1663.000,0.500,440.000,1.000,303.000,5.000,0
"07/04/06","20:08:32","AMMA06",39474.000,"cc",28281.039,6.00,2828.104,1,6,0.100,20091.000,0.200,16917.000,0.300,1676.000,0.500,477.000,1.000,312.000,5.000,1.000
"07/04/06","20:08:38","AMMA06",39410.000,"cc",28299.303,6.00,2829.930,1,6,0.100,20174.000,0.200,16739.000,0.300,1737.000,0.500,420.000,1.000,340.000,5.000,0
"07/04/06","20:08:44","AMMA06",39491.000,"cc",28272.816,6.00,2827.282,1,6,0.100,20166.000,0.200,16806.000,0.300,1764.000,0.500,432.000,1.000,323.000,5.000,0
"07/04/06","20:08:50","AMMA06",39117.000,"cc",28306.775,6.00,2830.678,1,6,0.100,20012.000,0.200,16602.000,0.300,1714.000,0.500,492.000,1.000,297.000,5.000,0
"07/04/06","20:08:56","AMMA06",38832.000,"cc",28339.344,6.00,2833.935,1,6,0.100,19726.000,0.200,16664.000,0.300,1705.000,0.500,437.000,1.000,300.000,5.000,0
"07/04/06","20:09:02","AMMA06",39126.000,"cc",28294.135,6.00,2829.414,1,6,0.100,19910.000,0.200,16686.000,0.300,1766.000,0.500,438.000,1.000,326.000,5.000,0
"07/04/06","20:09:08","AMMA06",39176.000,"cc",28309.727,6.00,2830.973,1,6,0.100,19810.000,0.200,16748.000,0.300,1832.000,0.500,464.000,1.000,322.000,5.000,0
"07/04/06","20:09:14","AMMA06",38738.000,"cc",28251.139,6.00,2825.114,1,6,0.100,19561.000,0.200,16664.000,0.300,1776.000,0.500,451.000,1.000,285.000,5.000,1.000
"07/04/06","20:09:20","AMMA06",38695.000,"cc",28291.912,6.00,2829.191,1,6,0.100,19555.000,0.200,16538.000,0.300,1816.000,0.500,443.000,1.000,343.000,5.000,0
"07/04/06","20:09:26","AMMA06",39366.000,"cc",28281.686,6.00,2828.169,1,6,0.100,19860.000,0.200,17002.000,0.300,1807.000,0.500,433.000,1.000,264.000,5.000,0
"07/04/06","20:09:32","AMMA06",39137.000,"cc",28398.393,6.00,2839.839,1,6,0.100,19529.000,0.200,17018.000,0.300,1761.000,0.500,500.000,1.000,329.000,5.000,0
"07/04/06","20:09:38","AMMA06",39004.000,"cc",28285.535,6.00,2828.554,1,6,0.100,19598.000,0.200,16894.000,0.300,1788.000,0.500,438.000,1.000,286.000,5.000,0
"07/04/06","20:09:44","AMMA06",39121.000,"cc",28330.268,6.00,2833.027,1,6,0.100,19423.000,0.200,17170.000,0.300,1764.000,0.500,466.000,1.000,298.000,5.000,0
"07/04/06","20:09:50","AMMA06",38813.000,"cc",28363.262,6.00,2836.326,1,6,0.100,19486.000,0.200,16825.000,0.300,1785.000,0.500,411.000,1.000,306.000,5.000,0
"07/04/06","20:09:56","AMMA06",38832.000,"cc",28295.164,6.00,2829.517,1,6,0.100,19399.000,0.200,16982.000,0.300,1728.000,0.500,420.000,1.000,303.000,5.000,0
"07/04/06","20:10:02","AMMA06",39250.000,"cc",28290.533,6.00,2829.054,1,6,0.100,19524.000,0.200,17075.000,0.300,1879.000,0.500,461.000,1.000,311.000,5.000,0
"07/04/06","20:10:08","AMMA06",39130.000,"cc",28382.352,6.00,2838.235,1,6,0.100,19332.000,0.200,17183.000,0.300,1838.000,0.500,457.000,1.000,320.000,5.000,0
"07/04/06","20:10:14","AMMA06",39163.000,"cc",28346.578,6.00,2834.658,1,6,0.100,19424.000,0.200,17081.000,0.300,1853.000,0.500,469.000,1.000,336.000,5.000,0
"07/04/06","20:10:20","AMMA06",39657.000,"cc",28269.916,6.00,2826.992,1,6,0.100,19763.000,0.200,17302.000,0.300,1835.000,0.500,464.000,1.000,293.000,5.000,0
"07/04/06","20:10:26","AMMA06",39561.000,"cc",28360.098,6.00,2836.010,1,6,0.100,19815.000,0.200,17173.000,0.300,1777.000,0.500,486.000,1.000,310.000,5.000,0
"07/04/06","20:10:32","AMMA06",38841.000,"cc",28303.611,6.00,2830.361,1,6,0.100,19383.000,0.200,16891.000,0.300,1809.000,0.500,426.000,1.000,332.000,5.000,0
"07/04/06","20:10:38","AMMA06",38838.000,"cc",28345.729,6.00,2834.573,1,6,0.100,19276.000,0.200,17013.000,0.300,1827.000,0.500,428.000,1.000,294.000,5.000,0
"07/04/06","20:10:44","AMMA06",39286.000,"cc",28377.393,6.00,2837.740,1,6,0.100,19441.000,0.200,17254.000,0.300,1856.000,0.500,441.000,1.000,294.000,5.000,0
"07/04/06","20:10:50","AMMA06",38754.000,"cc",28288.504,6.00,2828.851,1,6,0.100,19380.000,0.200,16858.000,0.300,1785.000,0.500,427.000,1.000,304.000,5.000,0
"07/04/06","20:10:56","AMMA06",39161.000,"cc",28287.484,6.00,2828.749,1,6,0.100,19496.000,0.200,17061.000,0.300,1845.000,0.500,473.000,1.000,286.000,5.000,0
"07/04/06","20:11:02","AMMA06",38936.000,"cc",28270.076,6.00,2827.008,1,6,0.100,19492.000,0.200,16945.000,0.300,1738.000,0.500,435.000,1.000,326.000,5.000,0
"07/04/06","20:11:08","AMMA06",39091.000,"cc",28310.016,6.00,2831.002,1,6,0.100,19371.000,0.200,17073.000,0.300,1859.000,0.500,462.000,1.000,326.000,5.000,0
"07/04/06","20:11:14","AMMA06",38999.000,"cc",28319.691,6.00,2831.969,1,6,0.100,19464.000,0.200,16969.000,0.300,1847.000,0.500,449.000,1.000,270.000,5.000,0
"07/04/06","20:11:20","AMMA06",38675.000,"cc",28267.666,6.00,2826.767,1,6,0.100,19278.000,0.200,16848.000,0.300,1810.000,0.500,440.000,1.000,298.000,5.000,1.000
"07/04/06","20:11:26","AMMA06",38750.000,"cc",28342.791,6.00,2834.279,1,6,0.100,19069.000,0.200,17078.000,0.300,1845.000,0.500,460.000,1.000,297.000,5.000,1.000
"07/04/06","20:11:32","AMMA06",38681.000,"cc",28391.002,6.00,2839.100,1,6,0.100,19209.000,0.200,16938.000,0.300,1792.000,0.500,445.000,1.000,297.000,5.000,0
"07/04/06","20:11:38","AMMA06",39031.000,"cc",28332.879,6.00,2833.288,1,6,0.100,19480.000,0.200,17005.000,0.300,1851.000,0.500,399.000,1.000,296.000,5.000,0
"07/04/06","20:11:44","AMMA06",39198.000,"cc",28318.711,6.00,2831.871,1,6,0.100,19517.000,0.200,17130.000,0.300,1827.000,0.500,430.000,1.000,293.000,5.000,1.000
"07/04/06","20:11:50","AMMA06",39182.000,"cc",28299.430,6.00,2829.943,1,6,0.100,19462.000,0.200,17123.000,0.300,1904.000,0.500,425.000,1.000,268.000,5.000,0
"07/04/06","20:11:56","AMMA06",39164.000,"cc",28316.826,6.00,2831.683,1,6,0.100,19545.000,0.200,17127.000,0.300,1775.000,0.500,431.000,1.000,286.000,5.000,0
"07/04/06","20:12:02","AMMA06",39121.000,"cc",28298.383,6.00,2829.838,1,6,0.100,19370.000,0.200,17228.000,0.300,1772.000,0.500,445.000,1.000,306.000,5.000,0
"07/04/06","20:12:08","AMMA06",39232.000,"cc",28376.033,6.00,2837.604,1,6,0.100,19629.000,0.200,17091.000,0.300,1738.000,0.500,443.000,1.000,331.000,5.000,0
"07/04/06","20:12:14","AMMA06",38944.000,"cc",28312.916,6.00,2831.292,1,6,0.100,19537.000,0.200,16817.000,0.300,1820.000,0.500,468.000,1.000,302.000,5.000,0
"07/04/06","20:12:20","AMMA06",39025.000,"cc",28303.834,6.00,2830.384,1,6,0.100,19371.000,0.200,17116.000,0.300,1803.000,0.500,439.000,1.000,296.000,5.000,0
"07/04/06","20:12:26","AMMA06",38963.000,"cc",28267.332,6.00,2826.733,1,6,0.100,19424.000,0.200,17062.000,0.300,1743.000,0.500,446.000,1.000,288.000,5.000,0
"07/04/06","20:12:32","AMMA06",39269.000,"cc",28380.232,6.00,2838.023,1,6,0.100,19642.000,0.200,17028.000,0.300,1858.000,0.500,417.000,1.000,324.000,5.000,0
"07/04/06","20:12:38","AMMA06",38877.000,"cc",28318.727,6.00,2831.873,1,6,0.100,19401.000,0.200,17009.000,0.300,1712.000,0.500,429.000,1.000,326.000,5.000,0
"07/04/06","20:12:44","AMMA06",39000.000,"cc",28354.736,6.00,2835.474,1,6,0.100,19341.000,0.200,17021.000,0.300,1860.000,0.500,454.000,1.000,323.000,5.000,1.000
"07/04/06","20:12:50","AMMA06",39146.000,"cc",28325.416,6.00,2832.542,1,6,0.100,19422.000,0.200,17151.000,0.300,1832.000,0.500,459.000,1.000,282.000,5.000,0
"07/04/06","20:12:56","AMMA06",39275.000,"cc",28280.957,6.00,2828.096,1,6,0.100,19567.000,0.200,17062.000,0.300,1882.000,0.500,465.000,1.000,298.000,5.000,1.000
"07/04/06","20:13:02","AMMA06",39443.000,"cc",28253.018,6.00,2825.302,1,6,0.100,19611.000,0.200,17306.000,0.300,1759.000,0.500,474.000,1.000,293.000,5.000,0
"07/04/06","20:13:08","AMMA06",39303.000,"cc",28304.334,6.00,2830.434,1,6,0.100,19443.000,0.200,17243.000,0.300,1829.000,0.500,465.000,1.000,323.000,5.000,0
"07/04/06","20:13:14","AMMA06",39437.000,"cc",28326.518,6.00,2832.652,1,6,0.100,19403.000,0.200,17471.000,0.300,1792.000,0.500,463.000,1.000,308.000,5.000,0
"07/04/06","20:13:20","AMMA06",39744.000,"cc",28330.162,6.00,2833.016,1,6,0.100,19642.000,0.200,17459.000,0.300,1910.000,0.500,434.000,1.000,299.000,5.000,0
"07/04/06","20:13:26","AMMA06",39050.000,"cc",28365.010,6.00,2836.501,1,6,0.100,19131.000,0.200,17342.000,0.300,1841.000,0.500,425.000,1.000,311.000,5.000,0
"07/04/06","20:13:32","AMMA06",39201.000,"cc",28289.404,6.00,2828.941,1,6,0.100,19291.000,0.200,17288.000,0.300,1883.000,0.500,442.000,1.000,296.000,5.000,1.000
"07/04/06","20:13:38","AMMA06",39626.000,"cc",28286.371,6.00,2828.637,1,6,0.100,19581.000,0.200,17418.000,0.300,1848.000,0.500,496.000,1.000,283.000,5.000,0
"07/04/06","20:13:44","AMMA06",39929.000,"cc",28231.481,6.00,2823.148,1,6,0.100,19819.000,0.200,17524.000,0.300,1897.000,0.500,397.000,1.000,292.000,5.000,0
"07/04/06","20:13:50","AMMA06",39853.000,"cc",28316.863,6.00,2831.687,1,6,0.100,19622.000,0.200,17511.000,0.300,1965.000,0.500,446.000,1.000,309.000,5.000,0
"07/04/06","20:13:56","AMMA06",39491.000,"cc",28350.484,6.00,2835.049,1,6,0.100,19349.000,0.200,17393.000,0.300,1945.000,0.500,475.000,1.000,329.000,5.000,0
"07/04/06","20:14:02","AMMA06",39755.000,"cc",28294.193,6.00,2829.419,1,6,0.100,19706.000,0.200,17543.000,0.300,1835.000,0.500,406.000,1.000,265.000,5.000,0
"07/04/06","20:14:08","AMMA06",39511.000,"cc",28346.211,6.00,2834.621,1,6,0.100,19698.000,0.200,17231.000,0.300,1860.000,0.500,446.000,1.000,276.000,5.000,0
"07/04/06","20:14:14","AMMA06",39312.000,"cc",28326.707,6.00,2832.671,1,6,0.100,19381.000,0.200,17397.000,0.300,1824.000,0.500,435.000,1.000,275.000,5.000,0